Change the Weather History Date:

Sunday, March 3, 2013

  Actual Average (KJFX) Record (KJFX)
Temperature  
Mean Temperature 34 °F -  
Max Temperature 43 °F 63 °F 82 °F (1976)
Min Temperature 24 °F 37 °F 6 °F (1980)
Degree Days  
Heating Degree Days 32    
Growing Degree Days 0 (Base 50)    
Moisture  
Dew Point 18 °F    
Average Humidity 60    
Maximum Humidity 84    
Minimum Humidity 26    
Precipitation  
Precipitation 0.00 in - - ()
Sea Level Pressure  
Sea Level Pressure 30.18 in    
Wind  
Wind Speed 7 mph (NNW)    
Max Wind Speed 12 mph    
Max Gust Speed 17 mph    
Visibility 10 miles    
Events Snow    
Averages and records for this station are not official NWS values.
T = Trace of Precipitation, MM = Missing Value Source: NWS Daily Summary

Daily Weather History Graph

Daily Weather History Graph

Search for Another Location

Airport or City:

Trip Planner

Search our weather history database for the weather conditions in past years. The results will help you decide how hot, cold, wet, or windy it might be!

Date:

Astronomy

Mar. 03, 2013 Rise Set
Actual Time 6:16 AM CST 5:48 PM CST
Civil Twilight 5:51 AM CST 6:13 PM CST
Nautical Twilight 5:22 AM CST 6:42 PM CST
Astronomical Twilight 4:53 AM CST 7:11 PM CST
Moon No Moon Rise 9:48 AM CST (3/3)
Length of Visible Light 12h 22m
Length of Day
11h 32m
Waning Gibbous, 63% of the Moon is Illuminated
Mar 3
Waning Gibbous
Mar 4
Last Quarter
Mar 11
New
Mar 19
First Quarter
Mar 27
Full

Hourly Weather History & Observations

Time (CST) Temp. Windchill Dew Point Humidity Pressure Visibility Wind Dir Wind Speed Gust Speed Precip Events Conditions
12:07 AM 28.4 °F 20.4 °F 21.2 °F 74% 30.17 in 10.0 mi NW 8.1 mph - 0.00 in Snow Light Snow
12:56 AM 28.0 °F 18.6 °F 21.0 °F 75% 30.21 in 10.0 mi NNW 10.4 mph - 0.00 in Snow Light Snow
1:36 AM 26.6 °F 18.2 °F 19.4 °F 74% 30.17 in 10.0 mi NNW 8.1 mph - 0.00 in Snow Light Snow
1:56 AM 27.1 °F 19.7 °F 20.1 °F 75% 30.20 in 10.0 mi NNW 6.9 mph - 0.00 in Snow Light Snow
2:56 AM 27.1 °F 18.9 °F 20.1 °F 75% 30.19 in 10.0 mi North 8.1 mph - 0.00 in   Overcast
3:56 AM 26.1 °F 18.4 °F 21.0 °F 81% 30.18 in 10.0 mi North 6.9 mph - 0.00 in Snow Light Snow
4:27 AM 26.6 °F 18.2 °F 19.4 °F 74% 30.16 in 10.0 mi NNW 8.1 mph - 0.00 in   Mostly Cloudy
4:56 AM 26.1 °F 16.2 °F 20.1 °F 78% 30.19 in 10.0 mi NNW 10.4 mph - 0.00 in   Overcast
5:56 AM 26.1 °F 18.4 °F 19.0 °F 75% 30.20 in 10.0 mi NNW 6.9 mph - N/A   Mostly Cloudy
6:56 AM 24.1 °F 17.0 °F 18.1 °F 78% 30.20 in 10.0 mi NNW 5.8 mph - N/A   Clear
7:56 AM 28.0 °F 18.1 °F 17.1 °F 63% 30.23 in 10.0 mi North 11.5 mph - N/A   Clear
8:56 AM 30.0 °F 20.5 °F 15.1 °F 54% 30.23 in 10.0 mi NNW 11.5 mph - N/A   Clear
9:56 AM 32.9 °F 25.3 °F 15.1 °F 48% 30.23 in 10.0 mi NNW 9.2 mph - N/A   Clear
10:56 AM 34.9 °F 30.8 °F 14.0 °F 42% 30.22 in 10.0 mi Variable 4.6 mph - N/A   Clear
11:56 AM 37.9 °F 31.5 °F 14.0 °F 38% 30.20 in 10.0 mi NW 9.2 mph 17.3 mph N/A   Clear
12:56 PM 39.9 °F 36.7 °F 13.1 °F 33% 30.18 in 10.0 mi Variable 4.6 mph - N/A   Clear
1:56 PM 41.9 °F 35.9 °F 12.0 °F 30% 30.16 in 10.0 mi NNW 10.4 mph 17.3 mph N/A   Clear
2:56 PM 43.9 °F 38.3 °F 11.1 °F 26% 30.15 in 10.0 mi North 10.4 mph - N/A   Clear
3:56 PM 43.9 °F 38.8 °F 12.0 °F 27% 30.15 in 10.0 mi NW 9.2 mph - N/A   Clear
4:56 PM 43.0 °F 41.3 °F 11.1 °F 27% 30.14 in 10.0 mi NW 3.5 mph - N/A   Clear
5:56 PM 38.8 °F - 14.0 °F 36% 30.14 in 10.0 mi Calm Calm - N/A   Clear
6:56 PM 32.9 °F - 19.0 °F 57% 30.16 in 10.0 mi Calm Calm - N/A   Clear
7:56 PM 30.0 °F - 20.1 °F 67% 30.16 in 10.0 mi Calm Calm - N/A   Clear
8:56 PM 29.1 °F 24.1 °F 21.0 °F 72% 30.16 in 10.0 mi SSW 4.6 mph - N/A   Clear
9:56 PM 28.0 °F 22.8 °F 21.0 °F 75% 30.15 in 10.0 mi South 4.6 mph - N/A   Clear
10:56 PM 27.1 °F - 21.0 °F 78% 30.15 in 10.0 mi Calm Calm - N/A   Partly Cloudy
11:56 PM 27.1 °F 23.2 °F 23.0 °F 84% 30.16 in 10.0 mi NE 3.5 mph - N/A   Mostly Cloudy